Regional Weather Roundup
Issued by NWS

Home | Current Version | Previous Version | Graphics & Text | Print | Product List | Glossary On
Versions: 1 2 3 4 5 6 7 8 9 10 11 12 13 14 15 16 17 18 19 20 21 22 23 24 25 26 27
000
ASUS45 KCYS 220510
RWRWY

WYOMING REGIONAL WEATHER ROUNDUP
NATIONAL WEATHER SERVICE CHEYENNE WY
1000 PM MST WED FEB 21 2018

NOTE:  "FAIR" INDICATES FEW OR NO CLOUDS BELOW 12,000 FEET
WITH NO SIGNIFICANT WEATHER AND/OR OBSTRUCTIONS TO VISIBILITY.

WYZ001-220600-
YELLOWSTONE NATIONAL PARK

CITY           SKY/WX    TMP DP  RH WIND       PRES   REMARKS
LK YELLOWSTONE   N/A    -11 -15  82 CALM      29.95S
W YELLOWSTONE  NOT AVBL

$$
WYZ002>013-054>058-071-098>099-220600-
NORTHERN WYOMING

CITY           SKY/WX    TMP DP  RH WIND       PRES   REMARKS
JACKSON        CLOUDY    11   2  67 SW8       30.02R WCI  -1
CODY           FAIR       6  -1  73 SW3       30.03S
GREYBULL       FAIR     -13 -16  86 NW3       30.11S
WORLAND        FAIR      -4  -7  87 CALM      30.08S
SHERIDAN       FAIR      -6 -10  83 NW3       30.07R
BUFFALO        FAIR      20  -2  38 W17       30.01S WCI   5
GILLETTE       FAIR       5  -3  69 E7        30.05F WCI  -7
HULETT         FAIR      18   1  49 MISG      30.10S
NEWCASTLE      FAIR       1  -6  71 SW3       30.16S

$$
WYZ014>020-022>026-101>103-220600-
CENTRAL WYOMING

CITY           SKY/WX    TMP DP  RH WIND       PRES   REMARKS
BIG PINEY      MOCLDY    -9 -12  87 N5        30.03F WCI -20
PINEDALE       FAIR      -8 -11  84 NW6       30.03F WCI -21
DUBOIS           N/A    N/A N/A N/A MISG        N/A
LANDER         FAIR      -3  -8  79 S3        30.04F
RIVERTON       FAIR      -4 -12  68 NW6       30.06F WCI -16
CASPER         CLOUDY    15   3  59 SW8       30.05F WCI   4
DOUGLAS        FAIR       7   1  76 S3        30.10F

$$
WYZ021-027>030-104>119-220600-
SOUTHERN WYOMING

CITY           SKY/WX    TMP DP  RH WIND       PRES   REMARKS
EVANSTON       FAIR       3  -4  72 E9        29.97F WCI -12
FORT BRIDGER   FAIR       1  -3  87 CALM      30.03F
ROCK SPRINGS   CLOUDY     6  -2  69 SE3       30.02F
DIXON          CLOUDY    15   6  65 E7        30.05S WCI   6
RAWLINS        CLOUDY     2  -4  76 NW8       30.03F WCI -12
SARATOGA       CLOUDY     5   0  78 CALM      30.01F
LARAMIE        MOCLDY     7   3  84 S9        30.00F WCI  -7
CHEYENNE       CLOUDY    12   8  84 SW5       30.07F WCI   4
TORRINGTON     FAIR      11   9  92 E7        30.17F WCI   0
PINE BLUFFS    FAIR      -2  -8  78 MISG      30.13F

$$




USA.gov is the U.S. government's official web portal to all federal, state and local government web resources and services.